Tracking 35275 objects as of 8-Sep-2026
HD Live streaming from Space Station
objects crossing your sky now

NEPALISAT1


NEPALISAT1 is no longer on orbit
NEPALISAT1 is classified as:


NORAD ID: 44329
Int'l Code: 1998-067QE
Launch date: November 20, 1998
Source: Federal Democratic Republic of Nepal (NPL)
Launch site: TYURATAM MISSILE AND SPACE COMPLEX (TTMTR)
Decay date: 2021-10-03

Uplink (MHz):
Downlink (MHz): 437.375
Beacon (MHz): 437.375
Mode: 4k8 GMSK CW
Call sign: JG6YLG
Status: Reentered


Uplink (MHz):
Downlink (MHz): 437.375
Beacon (MHz): 437.375
Mode: 4k8 GMSK CW
Call sign: JG6YLG
Status: Reentered

Your satellite tracking list
Your tracking list is empty




NASA's NSSDC Master Catalog

Two Line Element Set (TLE):
1 44329U 98067QE  21275.68501001  .04382427  12114-4  10133-2 0  9993
2 44329  51.6173  82.5337 0011342 297.1206  62.8659 16.28919678131203
Source of the keplerian elements: AFSPC